This demonstration page uses our WeatherBlox Daily Observations layout. Learn more.

Left ArrowRight Arrow

Hourly Observations for July 6, 2018

Temp ( °F °C ) Dew Point ( °F °C ) Humidity (%) Winds ( mph kmh ) Pressure ( in mb ) Visibility ( mi km ) Precip ( " mm )
12:15 am 00:15 Clear 68 20.1 66 19 93 93 N N/A 30.39 1029 10 16 N/A
12:35 am 00:35 Clear 67 19.5 65 18.3 93 93 NNE 3 6 30.39 1029 7 11 N/A
12:55 am 00:55 Clear 67 19.5 65 18.5 94 94 N 3 6 30.39 1029 7 11 N/A
1:15 am 01:15 Clear with Mist and Fog 66 19 65 18.1 95 95 N 5 7 30.39 1029 4 6 N/A
1:35 am 01:35 Clear with Mist and Fog 66 19 65 18.2 95 95 N N/A 30.39 1029 4 6 N/A
1:55 am 01:55 Clear with Mist and Fog 66 18.7 64 18 96 96 NE 5 7 30.39 1029 5 8 N/A
2:15 am 02:15 Clear with Mist and Fog 66 18.7 64 18 96 96 N N/A 30.36 1028 5 8 N/A
2:35 am 02:35 Clear 66 19.1 65 18.3 95 95 N N/A 30.36 1028 7 11 N/A
2:55 am 02:55 Clear with Mist and Fog 66 18.9 65 18.2 96 96 E 3 6 30.36 1028 5 8 N/A
3:15 am 03:15 Clear 66 19 65 18.1 95 95 E 3 6 30.36 1028 7 11 N/A
3:35 am 03:35 Clear with Mist and Fog 66 18.8 64 18 95 95 E 5 7 30.36 1028 5 8 N/A
3:55 am 03:55 Clear with Mist and Fog 66 19 65 18.2 95 95 E 5 7 30.36 1028 5 8 N/A
4:15 am 04:15 Clear with Mist and Fog 66 19 65 18.1 95 95 E 3 6 30.36 1028 5 8 N/A
4:35 am 04:35 Clear with Mist and Fog 66 18.7 64 18 96 96 E 5 7 30.36 1028 4 6 N/A
4:55 am 04:55 Clear 67 19.2 65 18.4 95 95 ESE 5 7 30.36 1028 7 11 N/A
5:15 am 05:15 Partly Cloudy with Mist and Fog 67 19.3 65 18.5 95 95 ESE 5 7 30.36 1028 5 8 N/A
5:35 am 05:35 Mostly Cloudy with Mist and Fog 68 20 66 19.1 95 95 ESE 6 9 30.36 1028 5 8 N/A
5:55 am 05:55 Mostly Cloudy with Mist and Fog 68 19.8 66 19 95 95 ESE 5 7 30.36 1028 4 6 N/A
6:15 am 06:15 Partly Cloudy with Mist and Fog 67 19.6 66 18.7 95 95 SE 5 7 30.36 1028 3 4 N/A
6:35 am 06:35 Cloudy with Mist and Fog 67 19.5 65 18.6 95 95 SSE 3 6 30.36 1028 1 2 N/A
6:55 am 06:55 Cloudy with Mist and Fog 68 19.9 66 19.1 95 95 SE 3 6 30.36 1028 2 2 N/A
7:15 am 07:15 Cloudy with Mist and Fog 69 20.3 67 19.5 95 95 SSE 3 6 30.36 1028 2 3 N/A
7:35 am 07:35 Cloudy with Mist and Fog 69 20.5 67 19.7 95 95 SE 6 9 30.33 1027 2 3 N/A
7:55 am 07:55 Cloudy with Mist and Fog 70 20.9 68 20.1 95 95 SE 7 11 30.33 1027 2 3 N/A
8:15 am 08:15 Cloudy with Mist and Fog 70 21.2 69 20.3 95 95 SE 7 11 30.33 1027 2 3 N/A
8:35 am 08:35 Cloudy with Mist and Fog 70 21.2 69 20.3 95 95 SSE 9 15 30.33 1027 2 2 N/A
8:55 am 08:55 Cloudy with Mist and Fog 70 21.3 69 20.3 94 94 SE 8 13 30.36 1028 2 3 N/A
9:15 am 09:15 Cloudy with Mist and Fog 71 21.7 69 20.5 93 93 SE 7 11 30.36 1028 3 4 N/A
9:35 am 09:35 Cloudy with Mist and Fog 72 22.2 69 20.6 91 91 SE 8 13 30.36 1028 4 6 N/A
9:55 am 09:55 Cloudy with Mist and Fog 73 22.8 69 20.5 87 87 SE 8 13 30.36 1028 4 6 N/A
10:15 am 10:15 Cloudy with Haze 74 23.2 69 20.4 84 84 SE 8 13 30.36 1028 4 6 N/A
10:35 am 10:35 Cloudy with Haze 74 23.3 69 20.3 83 83 ESE 8 13 30.36 1028 5 8 N/A
10:55 am 10:55 Cloudy 75 23.7 69 20.4 82 82 SE 7 11 30.36 1028 7 11 N/A
11:15 am 11:15 Cloudy 76 24.5 68 20.2 77 77 SE 9 15 30.33 1027 10 16 N/A
11:35 am 11:35 Cloudy 76 24.5 68 19.9 76 76 SE 9 15 30.30 1026 10 16 N/A
11:55 am 11:55 Cloudy 76 24.7 68 20 75 75 SE 8 13 30.30 1026 10 16 N/A
12:15 pm 12:15 Mostly Cloudy 77 25.2 68 20.2 74 74 ESE 9 15 30.30 1026 10 16 N/A
12:35 pm 12:35 Cloudy 78 25.7 69 20.3 72 72 SSE 8 13 30.30 1026 10 16 N/A
12:55 pm 12:55 Cloudy 79 26.1 69 20.3 70 70 SSE 7 11 30.30 1026 10 16 N/A
1:15 pm 13:15 Partly Cloudy 80 26.5 69 20.3 69 69 SSE 6 9 30.27 1025 10 16 N/A
1:35 pm 13:35 Partly Cloudy 80 26.8 68 20.1 67 67 SSE 7 11 30.27 1025 10 16 N/A
1:55 pm 13:55 Partly Cloudy 81 27.2 68 20.1 65 65 SSE 3 6 30.24 1024 10 16 N/A
2:15 pm 14:15 Partly Cloudy 81 27.2 68 19.9 64 64 SSE 5 7 30.24 1024 10 16 N/A
2:35 pm 14:35 Partly Cloudy 82 27.8 70 20.9 66 66 SSE 3 6 30.24 1024 10 16 N/A
2:55 pm 14:55 Partly Cloudy 82 27.5 68 20.1 64 64 SSE 6 9 30.24 1024 10 16 N/A
3:15 pm 15:15 Partly Cloudy 83 28.2 69 20.5 63 63 SSE 3 6 30.21 1023 10 16 N/A
3:35 pm 15:35 Partly Cloudy 83 28.2 69 20.7 64 64 E 3 6 30.21 1023 10 16 N/A
3:55 pm 15:55 Partly Cloudy 83 28.6 69 20.8 63 63 SE 7 11 30.21 1023 10 16 N/A
4:15 pm 16:15 Mostly Cloudy 83 28.3 69 20.3 62 62 S 5 7 30.18 1022 10 16 N/A
4:35 pm 16:35 Mostly Cloudy 82 27.6 71 21.7 70 70 E 5 7 30.18 1022 10 16 N/A
4:55 pm 16:55 Mostly Cloudy 83 28.4 70 20.9 64 64 ESE 9 15 30.18 1022 10 16 N/A
5:15 pm 17:15 Partly Cloudy 83 28.6 71 21.5 65 65 SE 6 9 30.18 1022 10 16 N/A
5:35 pm 17:35 Partly Cloudy 83 28.5 70 21 64 64 SE 9 15 30.15 1021 10 16 N/A
5:55 pm 17:55 Mostly Cloudy 83 28.2 70 21.2 66 66 ESE 8 13 30.15 1021 10 16 N/A
6:15 pm 18:15 Partly Cloudy 83 28.2 71 21.4 67 67 ESE 12 19 30.15 1021 10 16 N/A
6:35 pm 18:35 Partly Cloudy 82 28 70 21.1 66 66 SE 10 17 30.15 1021 10 16 N/A
6:55 pm 18:55 Sunny 82 27.7 70 21.1 67 67 ESE 10 17 30.15 1021 10 16 N/A
7:15 pm 19:15 Sunny 82 27.5 70 21.2 69 69 SE 12 19 30.12 1020 10 16 N/A
7:35 pm 19:35 Sunny 81 27.4 70 21.1 69 69 SE 10 17 30.12 1020 10 16 N/A
7:55 pm 19:55 Sunny 81 27 70 21.1 70 70 SE 9 15 30.12 1020 10 16 N/A
8:15 pm 20:15 Sunny 80 26.5 70 21.1 72 72 SE 10 17 30.12 1020 10 16 N/A
8:35 pm 20:35 Sunny 79 26.1 70 21.2 74 74 SE 9 15 30.12 1020 10 16 N/A
8:55 pm 20:55 Sunny 78 25.7 70 21.2 76 76 SE 10 17 30.15 1021 10 16 N/A
9:15 pm 21:15 Clear 77 25.2 70 21.3 79 79 SE 8 13 30.18 1022 10 16 N/A
9:35 pm 21:35 Clear 76 24.7 71 21.5 82 82 SE 9 15 30.18 1022 10 16 N/A
9:55 pm 21:55 Clear 76 24.6 71 21.5 83 83 SE 7 11 30.18 1022 10 16 N/A
10:15 pm 22:15 Clear 76 24.3 71 21.5 84 84 SE 9 15 30.18 1022 10 16 N/A
10:35 pm 22:35 Clear 75 24 71 21.5 86 86 SE 7 11 30.18 1022 10 16 N/A
10:55 pm 22:55 Clear 75 23.7 70 21.3 86 86 SE 7 11 30.18 1022 10 16 N/A
11:15 pm 23:15 Clear 74 23.6 70 21.3 87 87 SE 7 11 30.18 1022 10 16 N/A
11:35 pm 23:35 Clear 74 23.5 70 21.2 87 87 SE 7 11 30.18 1022 10 16 N/A
11:55 pm 23:55 Clear 74 23.2 70 21.3 89 89 SE 8 13 30.18 1022 10 16 N/A

Powered by AerisWeather